User: anonymous   Login
Location: Caltech
(34.1382°N, 118.1253°W)
Time: 02:03:53
(UTC-07:00)
Language:

Oscar 16 - Orbit

View from above orbital plane
View from above orbital plane
View from above satellite
View from above satellite

Ground track
Ground track

The orbit data is extracted from the following two-line orbital elements,

1 20439U 90005D   16242.86715095  .00000024  00000-0  25187-4 0  9991
2 20439  98.5765 178.6066 0009897 306.5267  89.4009 14.32643248389698
Epoch (UTC): 29 August 2016 20:48:41
Eccentricity: 0.0009897
inclination: 98.5765°
perigee height: 776 km
apogee height: 790 km
right ascension of ascending node: 178.6066°
argument of perigee: 306.5267°
revolutions per day: 14.32643248
mean anomaly at epoch: 89.4009°
orbit number at epoch: 38969

The dashed part of the orbit path shows where the satellite is in the earth's shadow,  

DLR